GAOFEN 11-1

Last updated on Tue Nov 21 2023 00:02:24 GMT+0000 (Coordinated Universal Time)

1 43585U 18063A 23324.54942672 .00008528 00000+0 33667-3 0 9996 2 43585 97.2618 31.2074 0010327 128.2748 231.9421 15.25717885295740

Satellite not in orbit

GAOFEN 11-1